Regional Weather Roundup
Issued by NWS

Home | Current Version | Previous Version | Graphics & Text | Print | Product List | Glossary Off
Versions: 1 2 3 4 5 6 7 8 9 10 11 12 13 14 15 16 17 18 19 20 21 22 23 24 25 26 27 28 29 30 31 32 33 34 35 36 37 38 39 40 41 42 43 44 45 46 47 48 49 50

000
ASUS43 KTOP 232359
RWRKS

WEATHER ROUNDUP FOR KANSAS
NATIONAL WEATHER SERVICE GOODLAND KS
700 PM CDT WED APR 23 2014

NOTE:  "FAIR" INDICATES FEW OR NO CLOUDS BELOW 12,000 FEET WITH NO
SIGNIFICANT WEATHER AND/OR OBSTRUCTIONS TO VISIBILITY.

KSZ001>006-013>018-027>032-041>047-240100-
NORTHWEST KANSAS

CITY           SKY/WX    TMP DP  RH WIND       PRES   REMARKS
GOODLAND       PTSUNNY   73  39  29 N16       29.51S
6HR MIN TEMP:  73; 6HR MAX TEMP:  85;

HAYS           CLOUDY   N/A N/A N/A S38G49    29.46F
HILL CITY      CLOUDY    78  50  37 S25G39    29.42F
6HR MIN TEMP:  78; 6HR MAX TEMP:  86; 6HR PCP: TRACE;

RUSSELL        CLOUDY    82  51  34 S30G44    29.47F
6HR MIN TEMP:  81; 6HR MAX TEMP:  86;

$$

KSZ061>065-074>080-084>089-240100-
SOUTHWEST KANSAS

CITY           SKY/WX    TMP DP  RH WIND       PRES   REMARKS
DODGE CITY     CLOUDY    78  43  28 S36G46    29.49F
6HR MIN TEMP:  76; 6HR MAX TEMP:  83;

ELKHART          N/A     85  25  11 SW20        N/A
GARDEN CITY    PTSUNNY   78  52  40 S31G45    29.48S
6HR MIN TEMP:  78; 6HR MAX TEMP:  85;

GREAT BEND     CLOUDY    79  52  38 S21G39    29.52S
LIBERAL        MOSUNNY   79  55  44 S24       29.51F
$$

KSZ066>073-081>083-090>101-240100-
SOUTHEAST KANSAS

CITY           SKY/WX    TMP DP  RH WIND       PRES   REMARKS
CHANUTE        MOSUNNY   77  51  40 S17       29.72F
6HR MIN TEMP:  76; 6HR MAX TEMP:  83;

COFFEYVILLE    MOSUNNY   80  54  40 S18G25    29.72F
6HR MIN TEMP:  78; 6HR MAX TEMP:  83;

HUTCHINSON     CLOUDY    82  47  29 S21G35    29.57F
6HR MIN TEMP:  78; 6HR MAX TEMP:  84;

MEDICINE LODGE   N/A     80  52  37 S23G39    29.57S
NEWTON         CLOUDY    79  45  29 S17G25    29.64F
PARSONS        MOSUNNY   79  52  38 S9G23     29.73F
6HR MIN TEMP:  79; 6HR MAX TEMP:  84;

WICHITA INTL   CLOUDY    81  47  30 S26G35    29.59F
6HR MIN TEMP:  80; 6HR MAX TEMP:  87;

WICHITA JABRA  CLOUDY    80  48  32 S24G33    29.59F
6HR MIN TEMP:  79; 6HR MAX TEMP:  86;

WINFIELD       CLOUDY    81  49  32 S20       29.65
6HR MIN TEMP:  81; 6HR MAX TEMP:  87;

$$

KSZ007>012-019>026-033>040-048>060-102>105-240100-
NORTHEAST KANSAS

CITY           SKY/WX    TMP DP  RH WIND       PRES   REMARKS
CONCORDIA      PTSUNNY   80  48  32 S16       29.51F
6HR MIN TEMP:  67; 6HR MAX TEMP:  83; 6HR PCP: TRACE;

EMPORIA        PTSUNNY   77  50  38 SE22G33   29.64F
6HR MIN TEMP:  73; 6HR MAX TEMP:  82;

LAWRENCE       MOSUNNY   77  47  34 SE24G33   29.68F
6HR MIN TEMP:  72; 6HR MAX TEMP:  79;

MANHATTAN      CLOUDY    83  43  24 S25G36    29.55F
6HR MIN TEMP:  75; 6HR MAX TEMP:  87;

OLATHE IND     MOSUNNY   74  46  36 SE20G26   29.71F
6HR MIN TEMP:  69; 6HR MAX TEMP:  76;

OLATHE EXE     SUNNY     72  45  37 SE20G30   29.71F
6HR MIN TEMP:  67; 6HR MAX TEMP:  74;

SALINA         CLOUDY    83  46  27 S28G36    29.53F
6HR MIN TEMP:  77; 6HR MAX TEMP:  86; 6HR PCP: TRACE;

TOPEKA BILLARD MOSUNNY   80  45  28 S17G30    29.64F
6HR MIN TEMP:  72; 6HR MAX TEMP:  81;

TOPEKA FORBES  MOSUNNY   78  43  28 S18G26    29.64F
6HR MIN TEMP:  72; 6HR MAX TEMP:  81;

$$



USA.gov is the U.S. government's official web portal to all federal, state and local government web resources and services.